Ana Sayfa
METAR-TAF:

METAR-TAF

Havaalanları :

Port Isabel-Cameron County Airport

Port Isabel, Teksas, Amerika Birleşik Devletleri

Enlem: 26-09-33N, Boylam: 097-20-15W, yükseklik: 5 m

Güncel hava durumu gözlemi

Rapor saat 23:53 UTC de 43 dakika önce yapıldı.
Rüzgar doğu/kuzeydoğudan 10 kt
Sıcaklık 14°C
Nem 33%
Basınç 1027 hPa
Görüş mesafesi: 16.1 km
Açık gökyüzü

METAR: KPIL 272353Z AUTO 07010KT 10SM CLR 14/M02 A3033 RMK AO2 SLP269 T01441017 10167 20144 55005

Saat: 18:36 (00:36 UTC)


TAF: eksik

4.000'den fazla havaalanı için hava durumu gözlemleri ve tahminleri (METAR ve TAF raporları).

Kullanılabilir istasyonlar harita üzerinde sarı ve kırmızı noktalarla gösterilir.

İstasyonun adını görmek için fareyi noktanın üzerinde gezdirin.

Sonrasında hava gözlem ve tahminlerini görmek için tıklayın.

Haritayı değiştirmek için: yaklaştırmak için siyah artı işaretli yeşil düğmeye ve uzaklaştırmak için de eksi işaretli düğmeye hızla tıklayın; bitişik haritalar için yeşil okları kullanın.


METAR-TAF: